Temperature
17 17 17 17 17 16 16 16 16 16 15 15 15 15 15 14 14 14 14 14 14 14 14 14 13 13 13 14 14 14 14 14 14 14 14 14 14 14 15 15 15 15 15
17 17 17 17 16 16 16 16 16 16 15 15 15 15 15 15 14 14 14 14 14 14 14 14 13 13 13 13 14 14 14 14 14 14 14 14 14 14 14 14 14 15 15
17 17 17 17 16 16 16 16 16 15 15 15 15 15 15 14 14 14 14 14 14 14 14 14 14 13 14 13 13 13 14 13 13 14 14 14 14 14 14 14 14 14 14
17 17 16 16 16 16 16 16 15 15 15 15 15 15 15 14 14 14 14 14 14 14 14 14 14 14 14 13 13 13 13 13 13 13 14 14 14 14 14 14 14 14 14
16 16 16 16 16 15 15 15 15 15 15 15 15 14 14 14 14 14 14 14 14 14 14 14 14 13 13 13 13 13 13 13 13 13 13 14 14 13 14 14 14 14 14
16 16 16 16 15 15 15 15 15 15 14 14 14 14 14 14 14 14 14 14 13 13 13 13 13 13 13 13 13 13 13 13 13 13 13 13 14 14 13 13 13 13 13
16 16 15 15 15 15 15 15 14 14 14 14 14 14 14 13 13 13 13 13 13 13 13 13 13 13 13 13 13 13 13 13 13 13 13 13 13 13 13 13 13 13 13
16 15 15 15 15 14 14 14 14 14 14 13 13 13 13 13 13 13 13 13 13 13 13 12 12 12 12 12 13 13 13 13 13 13 13 13 13 13 13 13 13 13 13
15 15 15 14 14 14 14 14 13 13 13 13 13 13 13 13 12 12 12 12 12 12 12 12 12 12 12 12 12 12 12 12 12 12 12 12 12 12 12 12 12 12 13
15 14 14 14 14 14 13 13 13 13 13 12 12 12 12 12 12 12 12 12 12 12 12 12 12 11 11 11 11 11 11 12 12 12 12 12 12 12 12 12 12 12 12
14 14 14 14 13 13 13 13 12 12 12 12 12 12 12 12 12 11 11 11 11 11 11 11 11 11 11 11 11 11 11 11 11 11 11 12 12 12 12 12 12 12 12
14 14 13 13 13 13 12 12 12 12 12 12 11 11 11 11 11 11 11 11 10 10 11 11 11 11 11 11 11 11 11 11 11 11 11 11 11 11 12 12 12 12 12
13 13 13 13 12 12 12 12 12 11 11 11 11 11 11 11 10 10 10 10 10 10 10 10 10 10 10 10 10 10 10 10 10 10 10 11 11 11 11 11 11 11 11
13 13 12 12 12 12 12 11 11 11 10 10 10 10 10 10 10 10 10 10 10 10 10 10 10 10 10 10 10 10 10 10 10 10 10 10 10 10 10 11 11 11 11
13 12 12 12 12 11 11 11 11 10 10 10 10 9 9 9 9 9 9 9 9 9 9 9 9 9 9 9 9 10 10 9 9 9 9 9 10 10 10 10 10 10 10
12 12 12 11 11 11 11 11 10 10 10 10 9 9 9 9 9 9 9 9 9 9 9 9 9 9 9 9 9 9 9 9 9 9 9 9 9 9 9 10 10 10 10
12 11 11 11 11 10 10 10 10 10 10 9 9 9 9 9 8 9 9 8 8 8 8 8 8 8 8 8 8 8 8 8 8 8 8 8 9 9 9 9 9 9 9
11 11 11 10 10 10 9 9 9 9 9 9 9 9 8 8 8 8 8 8 8 8 8 8 8 8 8 8 8 8 8 8 8 8 8 8 8 8 8 8 8 9 9
11 10 10 10 10 9 9 9 8 8 8 8 8 8 8 8 8 8 8 7 7 7 7 7 7 7 7 7 7 7 7 7 7 7 7 8 8 8 8 8 8 8 8
10 10 9 9 9 9 8 8 8 8 8 7 7 7 7 7 7 7 7 7 7 7 7 7 7 7 7 7 7 7 7 7 7 7 7 7 7 7 7 7 8 8 8
9 9 9 9 8 8 8 8 7 7 7 7 7 7 7 7 6 6 6 6 6 6 6 6 6 6 6 6 6 6 6 6 6 6 6 7 7 7 7 7 7 7 7
9 9 8 8 8 8 7 7 7 7 7 7 7 6 6 6 6 6 6 6 6 6 6 6 6 6 6 6 5 5 5 5 6 6 6 6 6 6 6 6 7 7 7
8 8 8 7 7 7 7 7 7 6 6 6 6 6 6 6 6 6 5 5 5 5 5 5 5 5 5 5 5 5 5 5 5 5 5 5 6 6 6 6 6 6 6
8 7 7 7 7 7 7 6 6 6 6 6 6 5 5 5 5 5 5 5 5 5 5 5 5 5 5 5 5 4 5 4 4 4 5 5 5 5 5 5 5 6 6
7 7 7 7 6 6 6 6 6 6 5 5 5 5 5 5 5 5 5 5 4 4 4 4 4 4 4 4 4 4 4 4 4 4 4 4 4 5 5 5 5 5 5
7 6 6 6 6 6 6 5 5 5 5 5 5 5 4 4 4 4 4 4 4 4 4 4 4 4 4 4 4 4 4 4 4 4 4 4 4 4 4 4 4 5 5
Wind_Speed
3 2 3 2 1 1 1 1 1 1 1 2 2 1 2 1 1 1 2 1 1 2 2 1 2 2 1 1 1 1 2 3 3 3 2 2 2 2 1 2 4 5 6
3 3 3 2 2 2 0 1 1 1 1 1 1 1 1 1 1 1 2 2 1 2 3 2 3 2 2 2 1 1 2 2 3 3 2 2 2 3 2 2 2 4 6
3 3 2 2 2 1 0 1 1 1 1 1 1 0 1 1 1 1 1 1 1 2 2 2 3 2 2 2 2 2 2 2 2 3 3 2 2 2 1 1 2 1 4
4 4 3 1 1 0 1 1 2 1 2 1 1 0 1 1 1 1 1 1 2 2 2 2 2 2 3 3 2 3 3 2 2 2 2 2 2 2 1 1 2 2 2
4 4 1 1 1 1 1 1 2 2 2 1 1 2 1 1 1 1 1 1 2 3 3 3 3 3 3 2 2 2 2 2 2 2 3 2 2 2 2 2 2 2 2
4 3 2 2 2 2 1 1 2 3 3 2 2 2 2 2 2 1 1 1 2 2 4 4 4 4 5 5 4 3 2 3 4 3 3 4 5 4 3 3 2 2 3
4 2 2 2 2 2 2 3 2 3 2 2 3 2 3 4 4 3 2 1 2 3 3 4 4 4 4 4 5 5 5 6 5 4 5 6 6 5 4 4 4 4 5
3 2 2 2 2 2 3 2 2 2 2 2 3 3 3 4 5 4 3 1 2 3 3 4 4 5 5 4 4 4 5 5 7 6 5 7 7 6 6 6 6 4 3
2 1 0 1 1 2 2 2 2 2 2 2 2 3 3 5 6 5 3 1 2 4 4 4 4 5 7 6 3 5 6 6 7 8 9 9 10 10 7 3 3 3 4
2 1 1 1 1 0 1 1 1 1 2 3 3 3 3 4 6 6 3 1 2 4 4 5 6 7 8 6 4 5 7 7 6 6 6 7 7 7 9 7 6 5 3
2 1 0 0 1 1 1 1 1 2 2 3 4 4 4 5 7 7 5 1 3 4 4 5 5 10 10 9 7 5 9 8 6 5 5 5 5 5 5 6 7 7 6
1 1 0 1 1 1 0 1 2 2 2 3 4 5 5 5 6 7 7 6 5 4 5 5 6 11 11 11 8 9 11 8 4 4 5 6 6 6 6 6 7 8 8
2 1 0 1 1 1 0 1 2 2 2 3 3 4 5 5 6 9 8 9 8 5 6 9 11 12 11 9 10 12 9 5 4 5 7 8 7 7 5 5 5 5 5
2 0 1 1 2 2 1 1 1 2 3 3 4 5 5 5 5 5 5 6 7 6 6 9 11 11 9 9 9 8 6 6 6 7 7 7 5 5 6 5 5 4 4
2 0 1 1 1 2 2 3 3 4 4 5 5 5 5 6 8 9 7 5 5 6 6 4 4 4 5 5 6 6 5 5 6 6 7 7 6 6 6 5 5 4 6
2 1 1 1 1 2 2 4 5 6 8 9 8 7 7 9 12 11 11 11 10 9 5 4 6 6 6 7 7 7 6 6 7 7 7 7 7 8 7 5 5 6 7
3 2 1 1 1 2 2 3 5 7 8 8 10 10 11 12 13 12 11 11 10 7 4 6 6 7 7 7 7 7 7 7 6 7 7 7 7 7 7 6 6 6 6
3 2 2 2 2 2 3 3 4 5 6 6 8 10 12 13 13 12 11 8 5 4 5 6 7 7 7 7 7 7 7 6 6 7 7 7 7 7 7 7 7 7 7
2 2 2 2 2 3 3 3 4 5 5 6 6 8 11 11 11 10 7 4 6 6 6 7 7 7 7 7 7 7 7 7 7 7 7 8 7 7 8 8 8 10 9
2 3 2 2 2 3 3 4 5 5 6 6 7 7 6 6 6 6 5 5 6 7 7 7 7 8 8 8 7 7 8 8 8 8 7 7 7 7 9 9 9 8 8
2 3 4 3 3 4 4 5 5 6 6 7 7 8 10 7 7 8 7 6 7 7 7 7 7 7 7 7 7 8 9 8 8 7 7 7 7 7 7 7 8 8 8
2 3 3 4 4 5 5 5 6 6 7 8 8 8 11 7 7 7 7 7 7 7 7 7 8 7 7 7 7 8 9 9 8 8 8 8 7 7 6 7 7 6 7
3 3 4 4 5 7 7 6 6 7 7 8 8 8 7 7 7 7 8 8 7 7 6 6 7 8 7 7 7 8 9 9 9 9 9 8 8 7 7 7 8 8 8
4 5 5 6 6 6 6 7 7 7 7 8 8 8 7 7 7 8 8 8 7 7 7 7 7 9 11 9 8 8 9 10 10 9 10 10 9 8 7 7 8 9 8
5 5 6 6 6 7 7 7 7 7 8 8 8 8 8 8 8 8 8 8 8 8 9 8 7 8 10 12 11 11 13 14 14 11 9 9 9 9 8 8 7 7 7
5 6 6 6 6 7 7 8 8 8 8 8 8 8 8 8 8 8 8 7 7 8 8 7 8 10 11 10 12 14 14 15 14 14 10 8 8 8 8 7 8 8 8
Wind_Direction
148 140 129 141 134 118 124 219 243 255 234 220 232 234 240 261 276 257 278 291 312 314 319 311 296 289 294 294 268 200 183 172 211 272 278 298 290 277 286 243 233 224 225
141 125 133 128 106 92 76 292 280 273 272 245 243 258 271 292 301 243 286 292 284 292 301 312 300 295 286 280 257 245 230 203 196 245 281 292 269 256 250 248 241 228 225
113 107 101 95 92 85 340 319 341 345 356 10 54 37 299 308 313 287 293 313 299 280 278 273 285 290 283 277 257 248 245 232 204 215 256 267 274 272 269 269 253 257 235
102 98 93 87 102 123 0 7 5 7 19 11 24 18 310 304 313 313 322 323 324 309 292 271 271 250 249 257 259 254 247 242 231 226 249 264 268 277 235 247 269 259 248
100 89 78 43 40 43 26 11 9 16 14 10 20 3 344 336 327 321 312 319 321 321 316 297 281 279 268 252 254 248 235 238 239 234 246 257 260 259 241 233 237 259 261
107 101 77 56 44 34 20 20 17 5 357 6 359 342 337 346 336 328 334 304 305 306 305 303 297 291 295 286 279 261 225 221 229 229 238 238 245 237 233 226 221 223 257
105 90 71 60 43 22 24 34 13 356 0 351 338 334 320 313 333 344 344 337 304 293 291 297 306 310 304 292 292 288 269 254 228 218 231 240 239 229 218 227 222 218 232
105 89 70 64 42 25 30 18 349 347 349 330 323 321 312 315 324 325 330 348 326 310 296 281 281 291 297 289 280 286 280 273 255 238 235 247 246 236 219 222 224 230 250
111 115 107 92 63 33 9 330 319 337 331 315 312 315 308 305 319 323 336 326 308 305 306 300 290 284 298 300 281 277 283 284 276 261 254 255 256 247 226 213 213 210 245
193 206 201 157 145 201 292 300 313 315 304 314 317 311 298 292 306 314 318 273 292 300 304 301 295 296 300 298 278 268 274 279 285 289 278 273 265 257 236 220 215 215 223
208 197 231 261 232 231 278 315 325 322 331 330 319 311 304 294 300 305 304 265 264 285 295 294 293 300 299 293 280 258 264 274 270 261 267 270 268 263 252 236 224 218 219
144 119 344 311 308 360 349 324 331 336 331 323 318 314 307 301 290 294 295 282 275 260 272 274 280 291 293 295 287 276 279 283 268 258 258 258 256 255 254 244 234 228 227
122 108 348 345 334 333 261 301 321 327 316 307 308 303 303 303 300 297 295 294 285 269 267 275 282 286 290 290 284 282 282 267 259 260 255 253 249 248 248 248 240 234 238
131 176 303 341 330 326 298 269 280 291 297 298 296 291 293 298 296 291 283 286 285 285 284 287 289 285 280 278 286 284 267 253 250 254 261 259 253 247 243 236 232 225 235
136 177 298 302 280 291 292 274 265 256 253 268 270 271 280 289 284 283 284 279 276 274 289 292 293 293 287 283 281 277 269 265 259 252 256 261 258 250 247 236 225 219 226
157 207 245 275 288 292 302 313 297 284 290 287 284 286 282 279 291 294 289 284 284 286 290 282 282 278 275 276 276 277 271 265 261 258 255 255 256 251 248 239 226 221 228
176 198 217 242 271 289 298 303 310 316 311 301 296 297 295 296 297 295 291 290 287 285 275 272 274 274 274 272 269 267 269 266 262 257 255 255 255 254 248 242 232 231 232
188 207 214 231 248 262 272 280 282 293 307 310 306 301 301 299 296 291 290 298 295 280 266 269 271 272 272 271 270 269 270 271 266 265 261 256 252 251 247 242 234 230 233
198 223 231 240 253 261 270 280 283 284 285 291 301 306 305 304 298 291 290 278 276 275 269 269 270 271 271 269 269 268 267 267 266 262 263 259 255 253 247 242 237 231 228
225 263 268 258 266 275 279 281 284 283 283 285 288 290 300 306 302 298 282 270 270 273 272 271 273 273 272 270 270 269 269 267 266 262 260 259 256 256 251 245 241 236 230
226 267 290 286 264 265 270 272 275 276 277 279 279 281 285 286 282 282 281 273 269 272 276 277 276 277 275 273 273 273 272 271 267 264 262 258 255 253 255 249 243 241 234
221 241 254 261 267 269 272 269 270 272 276 279 284 289 290 283 278 281 279 278 274 270 270 273 276 274 271 269 270 272 273 273 270 267 263 260 257 251 254 253 243 237 234
227 246 259 265 268 275 280 278 274 273 276 279 282 285 286 281 279 279 279 278 277 276 272 270 274 277 275 271 265 264 267 268 267 265 264 262 255 249 246 250 249 239 233
235 246 256 266 270 271 273 276 275 274 276 280 282 281 280 278 278 278 279 279 278 277 273 271 272 273 276 277 273 269 266 264 264 262 260 258 254 251 247 244 246 243 232
245 253 259 263 267 269 272 274 274 274 276 280 282 282 280 278 278 279 278 277 276 276 274 271 272 273 276 277 276 275 274 270 265 262 259 254 249 246 244 240 240 241 231
256 259 262 263 265 267 269 272 273 273 274 278 279 278 279 278 278 278 280 280 279 278 277 274 273 276 278 279 280 280 277 273 268 262 256 254 245 241 237 237 235 231 224
Height
1525 1526 1526 1527 1527 1528 1528 1528 1527 1527 1527 1526 1525 1524 1523 1523 1522 1521 1520 1519 1518 1517 1516 1515 1515 1514 1514 1514 1514 1513 1513 1513 1513 1512 1513 1512 1513 1513 1513 1513 1514 1515 1516
1524 1525 1525 1526 1526 1526 1526 1526 1526 1526 1525 1525 1524 1523 1523 1522 1521 1520 1519 1518 1517 1516 1515 1515 1514 1513 1513 1512 1512 1512 1512 1512 1512 1511 1511 1511 1511 1511 1511 1511 1512 1513 1514
1523 1524 1524 1525 1525 1525 1525 1525 1524 1524 1524 1523 1522 1522 1521 1520 1520 1519 1518 1517 1516 1515 1514 1513 1513 1512 1511 1511 1511 1510 1510 1510 1510 1509 1509 1509 1509 1509 1509 1509 1510 1510 1511
1522 1523 1523 1523 1524 1524 1524 1523 1523 1523 1522 1522 1521 1520 1520 1519 1518 1517 1517 1516 1515 1514 1513 1512 1511 1510 1510 1509 1509 1508 1508 1508 1508 1507 1507 1506 1507 1507 1507 1507 1507 1508 1509
1522 1522 1522 1523 1523 1522 1522 1522 1521 1521 1520 1520 1519 1519 1518 1517 1516 1515 1515 1514 1513 1512 1511 1510 1510 1509 1508 1507 1507 1506 1506 1505 1505 1505 1504 1504 1504 1504 1504 1505 1505 1505 1506
1521 1521 1521 1521 1521 1521 1521 1520 1520 1519 1519 1518 1517 1517 1516 1515 1514 1513 1513 1512 1511 1510 1509 1508 1507 1507 1506 1505 1504 1504 1503 1503 1502 1502 1501 1501 1501 1501 1502 1502 1502 1502 1502
1520 1520 1520 1520 1520 1520 1519 1519 1518 1517 1517 1516 1515 1515 1514 1513 1512 1511 1510 1509 1508 1507 1506 1505 1504 1504 1503 1502 1501 1500 1500 1499 1499 1499 1498 1497 1498 1498 1498 1498 1498 1498 1498
1519 1519 1519 1519 1518 1518 1518 1517 1516 1516 1515 1514 1513 1512 1511 1511 1510 1509 1508 1507 1506 1505 1504 1502 1501 1500 1499 1498 1497 1496 1496 1495 1495 1494 1494 1494 1494 1494 1494 1495 1494 1494 1494
1517 1517 1517 1517 1517 1516 1516 1515 1514 1514 1513 1512 1511 1510 1509 1508 1507 1506 1505 1504 1503 1502 1501 1500 1498 1497 1496 1494 1493 1492 1491 1491 1490 1490 1489 1489 1489 1489 1489 1490 1490 1490 1489
1516 1516 1516 1516 1515 1515 1514 1513 1512 1512 1511 1510 1508 1507 1506 1505 1504 1503 1502 1501 1499 1498 1497 1496 1495 1494 1492 1491 1489 1488 1486 1485 1485 1484 1484 1483 1483 1484 1484 1484 1484 1484 1484
1514 1514 1514 1514 1513 1513 1512 1511 1510 1509 1508 1507 1506 1505 1503 1502 1501 1500 1499 1497 1496 1494 1493 1492 1491 1489 1488 1487 1485 1484 1482 1481 1480 1479 1478 1477 1477 1477 1477 1478 1478 1479 1478
1512 1512 1512 1512 1511 1511 1510 1509 1508 1507 1505 1504 1502 1501 1500 1499 1497 1496 1495 1494 1492 1491 1489 1487 1486 1485 1483 1482 1480 1479 1477 1476 1475 1474 1472 1471 1471 1471 1471 1471 1472 1472 1472
1510 1510 1510 1509 1509 1508 1507 1506 1505 1504 1502 1501 1499 1497 1496 1495 1493 1492 1491 1490 1488 1486 1484 1483 1481 1480 1478 1476 1475 1473 1472 1470 1469 1467 1466 1465 1464 1464 1465 1465 1465 1465 1465
1508 1508 1507 1507 1506 1506 1505 1504 1502 1501 1499 1498 1496 1494 1492 1490 1489 1487 1486 1484 1482 1481 1479 1477 1476 1474 1472 1471 1469 1467 1466 1464 1463 1461 1460 1459 1458 1458 1458 1458 1458 1458 1458
1505 1505 1504 1504 1503 1502 1501 1500 1499 1498 1497 1495 1492 1491 1488 1485 1484 1483 1481 1479 1477 1475 1473 1471 1469 1467 1465 1464 1462 1461 1459 1458 1456 1454 1453 1452 1451 1451 1450 1450 1451 1451 1451
1502 1502 1501 1501 1500 1499 1498 1497 1495 1495 1493 1491 1489 1487 1484 1482 1479 1477 1476 1474 1472 1470 1468 1465 1463 1461 1459 1457 1456 1454 1452 1451 1449 1447 1446 1445 1444 1443 1443 1443 1443 1443 1443
1499 1499 1498 1497 1497 1495 1494 1492 1490 1489 1488 1486 1484 1482 1479 1476 1474 1471 1469 1467 1466 1464 1461 1459 1457 1455 1453 1451 1449 1447 1445 1444 1442 1441 1439 1438 1437 1436 1436 1435 1435 1435 1436
1496 1495 1495 1494 1493 1491 1490 1488 1486 1484 1482 1479 1478 1476 1474 1471 1468 1466 1464 1461 1458 1457 1455 1452 1450 1448 1446 1444 1442 1440 1438 1437 1435 1434 1432 1431 1430 1429 1429 1428 1428 1428 1428
1492 1491 1491 1490 1489 1487 1486 1484 1482 1480 1477 1474 1472 1470 1468 1465 1462 1460 1458 1455 1452 1450 1448 1445 1443 1441 1439 1437 1435 1433 1431 1429 1427 1426 1424 1423 1422 1422 1421 1421 1420 1421 1421
1488 1487 1486 1485 1484 1482 1480 1479 1477 1474 1472 1469 1467 1464 1462 1459 1456 1453 1451 1449 1446 1443 1441 1438 1436 1434 1432 1429 1427 1425 1423 1421 1419 1418 1417 1415 1414 1414 1413 1413 1412 1413 1413
1484 1483 1482 1480 1479 1477 1475 1473 1471 1469 1467 1464 1461 1459 1457 1453 1450 1447 1444 1442 1439 1436 1434 1431 1429 1426 1424 1422 1419 1417 1415 1413 1411 1410 1408 1407 1406 1405 1405 1404 1404 1405 1405
1479 1478 1476 1475 1473 1471 1469 1468 1466 1463 1460 1458 1455 1452 1450 1447 1443 1440 1438 1435 1432 1430 1427 1424 1421 1418 1416 1414 1411 1409 1406 1404 1402 1401 1399 1398 1398 1397 1397 1396 1396 1397 1397
1474 1472 1471 1469 1467 1465 1463 1461 1459 1457 1454 1451 1448 1445 1442 1439 1436 1434 1431 1428 1425 1422 1419 1416 1413 1410 1407 1405 1403 1400 1398 1395 1394 1392 1390 1389 1388 1388 1388 1388 1387 1387 1388
1468 1467 1465 1463 1461 1459 1457 1454 1452 1450 1447 1444 1441 1438 1435 1432 1429 1426 1423 1420 1417 1414 1411 1408 1405 1402 1399 1396 1393 1391 1389 1386 1385 1383 1382 1380 1379 1379 1379 1379 1379 1379 1380
1462 1461 1459 1457 1455 1452 1450 1447 1445 1443 1440 1437 1434 1431 1428 1425 1421 1418 1415 1412 1409 1406 1403 1400 1397 1394 1390 1387 1384 1381 1379 1377 1375 1374 1372 1371 1370 1370 1370 1370 1370 1371 1372
1456 1454 1452 1450 1448 1445 1443 1440 1438 1435 1432 1429 1426 1423 1420 1417 1414 1411 1408 1405 1401 1398 1395 1392 1389 1386 1382 1379 1375 1372 1369 1367 1365 1364 1363 1362 1361 1361 1362 1362 1362 1363 1364